Regional Weather Roundup
Issued by NWS

Home | Current Version | Previous Version | Text Only | Print | Product List | Glossary On
Versions: 1 2 3 4 5 6 7 8 9 10 11 12 13 14 15 16 17 18 19 20 21 22 23 24 25 26 27 28 29 30 31 32 33 34 35 36 37 38 39 40 41 42 43 44 45 46 47 48 49 50
000
ASUS42 KFFC 020003
RWRGA
WEATHER ROUNDUP FOR GEORGIA
NATIONAL WEATHER SERVICE PEACHTREE CITY GA
800 PM EDT MON SEP 01 2014

NOTE: "FAIR" INDICATES FEW OR NO CLOUDS BELOW 12,000 FEET WITH NO
SIGNIFICANT WEATHER AND/OR OBSTRUCTIONS TO VISIBILITY.

* = USE WITH CAUTION. THE STATIONS MARKED WITH AN ASTERISK MAY NOT
REPORT WEATHER SUCH AS PRECIPITATION, FOG, OR THUNDER AND ARE NOT
QUALITY CONTROLLED BY NWS.

THE REMARK "TC" DENOTES TEMPERATURE READING IN DEGREES CELSIUS.

GAZ001>058-020100-
NORTH GEORGIA

CITY           SKY/WX    TMP DP  RH WIND       PRES   REMARKS
ATLANTA        CLOUDY    81  69  67 CALM      30.10R
6HR MIN TEMP:  80; 6HR MAX TEMP:  90; 6HR PCP:  0.01;

ATHENS         CLOUDY    80  71  74 CALM      30.09R
6HR MIN TEMP:  80; 6HR MAX TEMP:  96; 6HR PCP: TRACE;

CHAMBLEE       CLOUDY    77  71  82 CALM      30.09R
6HR MIN TEMP:  75; 6HR MAX TEMP:  93; 6HR PCP:  0.05;

PEACHTREE CITY CLOUDY    75  73  93 CALM      30.11R
6HR MIN TEMP:  75; 6HR MAX TEMP:  92; 6HR PCP:  0.02;

ROME           MOCLDY    80  68  66 SW3       30.05F
6HR MIN TEMP:  79; 6HR MAX TEMP:  94;

WEST ATLANTA   CLOUDY    81  69  67 W3        30.08R
6HR MIN TEMP:  81; 6HR MAX TEMP:  91;

GAINESVILLE    MOCLDY    80  68  66 W6        30.13R
6HR MIN TEMP:  79; 6HR MAX TEMP:  90;

CARTERSVILLE   CLOUDY    78  69  73 CALM      30.08S
6HR MIN TEMP:  77; 6HR MAX TEMP:  93;



CITY           SKY/WX    TMP DP  RH WIND       PRES   REMARKS
DALTON*        PTCLDY    82  72  69 S7        30.07R
LAWRENCEVILLE* CLEAR    N/A N/A N/A CALM      30.09S
MARIETTA       MOCLDY    82  74  76 SE3       30.10R
KENNESAW*      MOCLDY    82  66  57 SW7       30.11R
$$

GAZ059>098-102>109-020100-
CENTRAL GEORGIA

CITY           SKY/WX    TMP DP  RH WIND       PRES   REMARKS
AUGUSTA-BUSH   MOCLDY    86  67  52 N9        30.05R
6HR MIN TEMP:  85; 6HR MAX TEMP:  98;

AUGUSTA-DANIEL CLOUDY    83  70  64 N10       30.07R
6HR MIN TEMP:  83; 6HR MAX TEMP:  98;

COLUMBUS       MOCLDY    78  72  81 CALM      30.05S
6HR MIN TEMP:  76; 6HR MAX TEMP:  96; 6HR PCP:  0.14;

MACON          CLOUDY    76  72  87 N17G26    30.06R
6HR MIN TEMP:  76; 6HR MAX TEMP:  97;

ROBINS AFB     CLOUDY    82  72  71 N14       30.07R


CITY           SKY/WX    TMP DP  RH WIND       PRES   REMARKS
LAGRANGE*      MOCLDY    80  77  90 CALM      30.09R
SYLVANIA*      PTCLDY    86  77  75 SE3       30.07R HX  97
MILLEDGEVILLE* TSTM      73  73 100 CALM      30.08S
$$

GAZ099>101-110>166-020100-
SOUTH GEORGIA

CITY           SKY/WX    TMP DP  RH WIND       PRES   REMARKS
SAVANNAH       CLOUDY    84  74  71 S7        30.07R HX  91
6HR MIN TEMP:  84; 6HR MAX TEMP:  95; 6HR PCP: TRACE;

VALDOSTA       PTCLDY    87  73  62 CALM      30.03R HX  94
6HR MIN TEMP:  86; 6HR MAX TEMP:  95;

ALMA           CLOUDY    83  73  72 CALM      30.05R
6HR MIN TEMP:  83; 6HR MAX TEMP:  95;

ST SIMONS      CLEAR     84  74  71 SE9       30.06R HX  91
6HR MIN TEMP:  84; 6HR MAX TEMP:  89;

FT STEWART     CLOUDY    85  75  71 SE6       30.04S HX  93
ALBANY         MOCLDY    89  71  55 CALM      30.04R HX  95
HUNTER AFB     CLOUDY    84  76  76 SE5       30.05R HX  93
MOODY AFB      MOCLDY    87  73  64 E3        30.05R HX  94
BRUNSWICK      CLEAR     86  73  66 SE6       30.06S HX  93


CITY           SKY/WX    TMP DP  RH WIND       PRES   REMARKS
BAINBRIDGE*    PTCLDY    86  73  66 SW3       30.04R HX  93
MOULTRIE*      PTCLDY    88  73  62 W6        30.05R HX  96
VIDALIA*         N/A     79  75  89 CALM      30.06R
WAYCROSS*      CLOUDY    86  81  85 E5        30.05R HX 102
DOUGLAS*       CLOUDY    86  72  62 E6        30.07R HX  92
$$


USA.gov is the U.S. government's official web portal to all federal, state and local government web resources and services.